Regional Weather Roundup
Issued by NWS

Home | Current Version | Previous Version | Graphics & Text | Print | Product List | Glossary On
Versions: 1 2 3 4 5 6 7 8 9 10 11 12 13 14 15 16 17 18 19 20 21 22 23 24 25 26 27 28 29 30 31 32 33 34 35 36 37 38 39 40 41 42 43 44 45 46 47 48 49 50
000
ASUS43 KDMX 061007
RWRIA

WEATHER ROUNDUP FOR IOWA
NATIONAL WEATHER SERVICE DES MOINES IA
500 AM CDT WED MAY 06 2015

NOTE: "FAIR" INDICATES FEW OR NO CLOUDS BELOW 12,000 FEET WITH NO
SIGNIFICANT WEATHER AND/OR OBSTRUCTIONS TO VISIBILITY.

* - THESE STATIONS ARE NOT NWS STATIONS...THUS NOT UNDER NWS
QUALITY CONTROL.  THEY ALSO DO NOT REPORT WEATHER SUCH
AS PRECIPITATION OR FOG.

IAZ001>003-012>014-020>022-031>034-043>046-061100-
   NORTHWEST IOWA

CITY           SKY/WX    TMP DP  RH WIND       PRES   REMARKS
CARROLL *      CLOUDY    61  61 100 SE8       29.97F
CHEROKEE *     LGT RAIN  63  61  94 SE12      29.96S
DENISON *      CLOUDY    61  61 100 SE6       29.92F
LE MARS *      MOCLDY    64  61  88 SE14G20   29.92F
ORANGE CITY *  LGT RAIN  63  57  82 SE10      29.93F
SHELDON *      CLOUDY    63  63 100 SE16      29.94S
SIOUX CITY     CLOUDY    63  59  87 SE13      29.90F
SPENCER        LGT RAIN  62  61  96 SE15      29.99R FOG
STORM LAKE *   CLOUDY    63  61  94 SE10G17   29.98F
$$

IAZ055>058-069>071-079>083-090>094-061100-
   SOUTHWEST IOWA

CITY           SKY/WX    TMP DP  RH WIND       PRES   REMARKS
ATLANTIC *     MOCLDY    61  59  94 CALM      29.95S
AUDUBON *      CLEAR     61  57  88 E5        29.97F
CLARINDA *     CLEAR     63  59  88 VRB3      29.95S
COUNCIL BLFS * MOCLDY    61  61 100 E10       29.91F
CRESTON *      PTCLDY    61  61 100 SE9       29.97F
HARLAN  *      CLEAR     61  61 100 E6        29.97F
LAMONI         MOCLDY    65  57  75 SE8       29.98F
RED OAK *      PTCLDY    63  61  94 E10       29.92F
SHENANDOAH *   CLEAR     63  61  94 E9        29.92F
$$

IAZ047>049-059>061-072>074-084-061100-
   CENTRAL IOWA

CITY           SKY/WX    TMP DP  RH WIND       PRES   REMARKS
AMES           MOCLDY    63  61  93 SE9       30.01F FOG
ANKENY *       MOCLDY    61  61 100 SE3       30.00S FOG
CHARITON *     CLEAR     63  59  88 SE10      30.01S
DES MOINES     MOCLDY    65  59  81 E9        30.00S
GRINNELL*      FOG       63  61  94 E10       30.05S VSB 1
KNOXVILLE *    PTCLDY    63  59  88 SE8       30.01R
MARSHALLTOWN   CLOUDY    63  61  93 SE14      30.03S FOG
PELLA *          N/A     63  63 100 E7        30.03F FOG
PERRY *        CLOUDY    63  63 100 E10       29.99S FOG
$$

IAZ004>006-015-016-023>025-035-036-061100-
   NORTH CENTRAL IOWA

CITY           SKY/WX    TMP DP  RH WIND       PRES   REMARKS
ALGONA *       FOG       61  61 100 SE16G23   30.01F VSB 1/4
CLARION *      FOG       59  59 100 SE10G16   30.03F VSB 1/4
ESTHERVILLE    FOG       58  58 100 SE17      30.00S VSB 1/2
FORT DODGE *   CLOUDY    63  57  82 E12       30.00F
MASON CITY     FOG       56  56 100 SE9       30.07S VSB 1/4
FOREST CITY *  FOG       55  55 100 SE12      30.05S VSB 1/2
IOWA FALLS *   FOG       59  59 100 E7        30.06R VSB 1/4
$$

IAZ007>011-017>019-026>030-037>042-050>054-066-061100-
   NORTHEAST IOWA

CITY           SKY/WX    TMP DP  RH WIND       PRES   REMARKS
CEDAR RAPIDS   CLOUDY    57  57 100 E12       30.07S FOG
CHARLES CITY * FOG       55  55 100 SE12      30.08S VSB 1/4
CLINTON *      CLOUDY    55  52  88 E12       30.14S
DECORAH *      FOG       54  54 100 SE7G14    30.10S VSB 1/4
DUBUQUE        FOG       53  52  96 E7        30.12F VSB 1/4
MONTICELLO *   FOG       55  55 100 E9        30.10F VSB 1
OELWEIN *      FOG       55  55 100 SE15      30.09F VSB 1/4
WATERLOO       FOG       56  56 100 E10       30.07S VSB 1/2
$$

IAZ064-065-067-068-078-061100-
   EAST CENTRAL IOWA

CITY           SKY/WX    TMP DP  RH WIND       PRES   REMARKS
DAVENPORT      FOG       55  53  93 E9        30.11F VSB 3/4
IOWA CITY      CLOUDY    57  55  93 E8        30.10R FOG
MT. PLEASANT * FOG       61  61 100 E7        30.07S VSB 1
MUSCATINE *    MOCLDY    59  57  94 E5        30.09S FOG
QUAD CITIES    CLOUDY    56  54  93 E9        30.11S FOG
$$

IAZ062-063-075>077-085>089-095>099-061100-
   SOUTHEAST IOWA

CITY           SKY/WX    TMP DP  RH WIND       PRES   REMARKS
BURLINGTON     CLEAR     63  62  97 E6        30.07S FOG
FAIRFIELD *    FOG       63  61  94 E7        30.06S VSB 3/4
FORT MADISON * CLEAR     66  61  82 SE5       30.08S
KEOKUK *       CLEAR     64  59  82 SE5       30.06S
OSKALOOSA *      N/A     63  61  94 E10       30.04F FOG
CENTERVILLE *  CLEAR     61  59  94 SE7       30.04S
OTTUMWA        CLEAR     61  61 100 E7        30.03F FOG
WASHINGTON *   FOG       63 N/A N/A SE6       30.07S VSB 1
$$

ABBREVIATIONS USED IN REMARKS
   TC - TEMPERATURES IN CELSIUS
  WCI - WIND CHILL INDEX
   HX - HEAT INDEX
  VSB - VISIBILITY
$$



USA.gov is the U.S. government's official web portal to all federal, state and local government web resources and services.